GFSMA_250_rhum_366.txt.gz
RH
100 100 100 89 100 100 100 100 100 100 100 100 100 100 100 100 100 100 100 100 100 100 86 93 100 100 98 100 86 89 74 91 100 97 98 84 63 57 60 66 68 67 68
100 100 100 100 100 100 100 93 100 100 100 100 100 100 100 100 100 100 100 100 100 100 86 97 100 100 87 93 91 80 87 87 70 73 79 86 81 66 60 65 77 76 67
100 100 100 100 100 100 100 99 94 100 100 100 100 100 100 99 100 100 99 100 100 100 98 99 100 100 100 100 91 86 89 100 93 67 63 61 76 70 73 64 61 60 59
100 100 100 100 100 100 100 100 98 100 100 100 100 100 100 100 100 100 90 81 81 88 91 93 100 100 100 100 100 88 100 89 80 82 72 61 66 63 61 53 52 48 41
99 100 100 100 100 100 100 100 100 100 100 100 100 100 100 100 100 100 100 98 93 88 98 100 100 90 98 100 100 92 98 100 100 90 68 73 65 62 55 52 48 39 33
87 97 100 100 100 100 100 100 100 100 99 100 100 100 100 100 100 100 100 100 99 100 94 86 95 97 100 99 97 96 83 81 96 72 59 58 62 59 77 54 54 52 49
36 64 85 100 100 100 100 99 100 100 100 100 100 83 100 93 100 100 100 100 100 100 100 100 93 83 96 98 94 91 87 79 65 62 60 97 86 80 96 67 74 65 65
50 46 48 90 100 100 100 100 100 100 100 100 100 100 96 100 100 90 98 100 100 100 100 100 92 80 81 98 87 97 96 87 74 92 100 100 100 99 88 87 92 85 83
76 42 48 46 71 100 100 100 100 100 100 100 100 100 100 100 100 100 100 100 98 98 96 96 99 93 96 100 97 92 88 90 72 97 100 100 100 100 95 100 100 98 93
100 73 38 45 49 61 100 100 100 100 100 100 100 100 100 94 100 90 100 100 100 100 100 100 100 100 100 100 100 100 100 100 100 100 100 100 100 100 100 100 100 100 100
99 67 64 61 57 45 48 65 99 100 100 100 100 100 100 100 100 99 76 94 94 92 100 100 100 100 100 100 100 100 100 100 100 100 100 100 100 100 100 100 94 93 99
80 96 99 99 77 45 56 52 58 71 98 100 100 100 100 100 100 100 100 100 93 84 87 91 98 100 100 100 100 100 100 100 100 100 100 100 100 100 100 100 100 98 96
100 98 95 96 85 61 67 45 55 54 57 78 100 100 100 100 100 100 100 100 100 100 94 84 91 92 85 84 81 78 78 82 88 100 100 100 100 100 100 100 100 100 100
100 100 98 99 100 82 68 76 60 54 62 59 69 90 100 100 100 100 100 100 100 100 100 100 100 100 100 100 100 100 97 84 78 80 90 83 87 87 81 80 84 84 87
100 100 81 74 90 89 68 96 63 75 76 67 85 83 82 100 100 100 100 100 100 100 100 100 100 100 100 100 100 100 100 100 100 99 100 99 96 99 97 92 86 80 79
100 100 99 88 77 86 77 82 88 83 95 77 88 96 99 100 100 100 100 100 100 100 100 100 100 100 100 100 100 100 100 100 100 100 100 100 85 99 99 94 96 95 94
100 100 100 97 72 76 77 89 92 93 99 77 89 98 100 100 100 100 100 100 100 100 100 100 100 100 100 100 100 100 100 100 100 100 100 100 100 100 100 100 100 97 91
88 84 84 67 78 90 80 80 86 95 100 77 96 100 100 100 100 100 100 100 100 100 100 100 100 100 100 100 100 100 100 100 100 100 100 100 100 94 96 89 76 68 66
61 64 75 78 80 74 71 79 87 95 100 100 100 92 100 100 100 100 100 100 100 100 100 100 100 100 100 100 100 100 99 100 100 99 100 100 92 82 79 77 89 85 84
68 76 70 67 68 68 78 88 95 99 100 100 100 82 98 100 100 100 100 100 100 100 100 100 100 98 98 99 97 99 100 100 100 88 93 99 89 88 82 86 88 86 76
73 71 68 71 80 83 83 98 100 100 100 100 100 100 95 85 100 100 100 100 100 100 100 100 100 100 100 100 100 96 87 84 79 82 73 76 73 76 76 98 85 82 76
88 90 88 93 98 95 98 98 96 97 100 100 100 100 100 100 100 92 84 100 100 100 100 100 100 100 100 100 100 100 92 88 85 74 78 72 60 59 63 70 68 67 80
86 91 94 97 93 89 91 99 96 96 98 100 100 100 100 100 100 98 89 94 100 98 100 100 100 100 100 100 93 74 78 73 62 60 62 67 69 70 71 70 71 69 57
90 96 98 93 89 85 79 83 98 98 87 100 100 98 97 100 100 93 86 91 91 93 75 90 98 96 85 77 76 74 71 66 68 77 74 62 59 58 64 69 70 68 67
90 92 94 98 86 81 78 73 73 80 82 97 98 88 100 100 99 86 100 80 62 73 60 46 54 61 59 62 60 54 50 51 57 67 79 76 76 72 77 83 83 77 78
84 86 89 90 93 84 75 74 72 69 65 63 83 100 100 100 94 93 100 100 100 91 83 79 62 50 54 62 65 82 84 67 74 76 75 69 88 94 87 98 100 100 100

GFSMA_250_rhum_372.txt.gz
RH
33 100 100 100 88 100 100 100 100 100 100 100 100 100 100 100 100 100 83 89 79 74 99 95 100 96 73 75 57 61 64 93 100 100 100 100 100 100 100 92 84 78 75
30 100 100 100 100 100 100 100 100 100 100 100 100 100 92 100 99 88 86 100 100 100 100 99 90 66 88 80 76 81 82 80 95 100 96 100 100 100 97 86 79 69 61
30 100 100 100 100 100 100 100 100 84 91 94 100 100 100 100 100 100 92 100 100 100 100 100 100 100 100 99 100 100 100 100 100 95 95 100 99 93 100 90 71 68 72
25 71 100 100 100 100 97 100 100 100 100 86 84 99 89 100 100 100 100 74 89 84 96 100 99 100 100 91 78 83 95 98 95 87 83 100 100 98 100 99 85 84 73
30 28 86 100 100 100 100 100 100 100 99 86 44 49 47 58 94 100 99 100 100 96 86 98 100 81 74 81 100 97 94 86 90 98 96 83 96 96 98 100 92 80 61
39 28 34 89 100 100 100 100 100 100 100 100 96 82 96 96 100 100 100 100 100 100 100 100 100 100 88 92 77 87 94 99 100 98 88 90 75 72 76 79 82 72 70
74 34 33 41 98 100 100 100 100 100 100 100 100 100 100 100 100 100 100 100 100 100 100 100 100 100 100 98 100 100 100 96 84 86 94 94 89 82 82 86 94 79 94
79 65 38 35 55 100 100 100 100 100 100 100 100 100 100 100 100 100 100 100 91 90 100 99 100 97 93 98 99 98 95 80 68 68 68 91 86 83 84 93 96 93 86
100 100 78 52 50 64 100 100 100 100 100 100 100 100 100 100 100 100 100 100 100 100 100 100 100 97 77 76 80 68 69 72 77 86 84 65 73 77 85 87 81 85 90
100 100 87 74 72 59 79 100 100 100 100 100 100 100 100 100 100 100 100 100 100 100 100 100 100 100 100 98 88 69 77 75 68 85 88 86 98 100 98 84 72 95 82
89 100 100 84 100 86 59 90 100 100 100 100 100 100 100 100 100 100 100 100 100 100 100 100 100 100 100 100 100 100 100 100 100 100 100 96 77 95 100 100 100 100 100
86 94 100 100 99 90 66 77 90 100 100 100 100 100 100 100 100 100 100 100 100 100 100 100 100 100 100 100 100 100 100 100 100 100 100 100 82 77 78 81 81 86 82
75 100 93 100 98 100 98 100 78 100 100 100 100 100 100 100 100 100 100 100 100 100 100 100 100 98 100 100 90 89 92 98 100 99 100 100 88 77 79 92 77 65 61
84 100 100 100 100 100 100 90 100 100 100 99 100 100 100 100 100 100 100 100 100 100 100 100 100 100 93 85 89 80 100 90 100 95 100 100 79 63 70 77 66 83 86
100 100 100 100 100 100 100 100 100 100 100 100 100 99 97 100 100 100 100 100 100 100 100 100 100 100 100 100 99 100 100 96 89 96 90 93 91 81 59 51 59 64 67
100 100 100 100 100 100 100 100 100 100 100 100 100 100 100 85 99 100 100 100 100 100 100 100 100 100 100 100 100 98 96 99 100 95 83 70 63 70 68 58 64 62 59
100 100 100 100 100 100 100 100 100 100 100 100 100 100 100 93 86 90 100 97 90 91 93 98 99 100 100 100 100 100 100 100 100 100 100 100 99 99 94 96 85 83 81
100 100 100 100 100 100 100 100 100 100 100 100 100 100 100 83 66 69 75 85 84 83 89 81 95 97 94 99 100 100 100 100 100 100 100 100 100 100 100 100 100 100 94
100 100 100 100 100 100 100 100 100 100 100 100 100 100 89 73 97 82 75 62 58 71 68 86 75 82 82 80 88 90 95 98 100 100 100 100 100 100 100 89 86 92 85
100 100 100 100 100 100 100 100 100 100 100 100 100 100 100 100 59 83 99 95 87 74 87 78 62 85 94 91 99 81 92 85 80 93 100 100 100 100 100 100 100 100 100
100 100 100 100 100 100 100 100 100 100 100 100 100 100 100 100 100 100 99 70 86 100 72 67 56 48 58 86 81 72 80 87 71 79 96 100 97 95 100 100 100 100 100
100 100 100 100 100 100 100 100 100 100 100 100 100 100 100 100 100 100 100 100 100 100 72 54 72 73 68 61 69 69 85 68 77 71 80 99 95 96 96 89 83 86 88
100 100 100 100 100 100 100 100 100 100 100 100 100 100 100 100 100 100 100 100 100 81 53 61 78 68 64 56 63 71 86 82 70 71 77 90 100 94 84 92 90 95 78
100 100 100 100 100 100 100 100 100 100 100 100 100 100 100 100 100 100 100 100 100 92 87 95 80 77 63 67 54 60 83 72 61 62 66 80 96 95 96 92 81 85 88
100 100 100 100 100 100 100 100 100 100 100 100 100 100 100 100 100 100 100 100 100 100 100 97 98 100 87 74 76 65 62 68 83 66 56 72 95 100 99 96 96 98 94
87 92 100 100 100 100 100 100 100 100 100 100 100 100 100 100 100 100 100 100 100 100 88 100 77 66 85 87 73 88 86 88 80 60 72 79 88 98 97 99 100 98 94

GFSMA_250_rhum_375.txt.gz
RH
32 35 33 38 100 100 100 100 100 100 100 100 100 100 100 100 100 100 100 95 100 100 100 90 92 42 49 63 69 90 95 100 93 85 68 64 68 88 90 100 100 100 100
42 35 28 53 100 100 100 100 99 100 100 100 100 100 100 97 100 100 100 100 98 99 98 99 100 100 82 49 45 76 82 81 61 48 56 68 100 100 100 100 89 99 96
44 42 30 34 100 100 100 100 94 100 100 100 100 100 100 100 98 100 100 98 100 83 81 70 73 88 88 65 64 55 54 53 48 64 60 73 74 86 87 79 88 94 90
53 48 34 32 100 100 100 100 84 100 100 100 100 100 100 100 100 100 100 100 94 87 100 100 100 100 100 78 57 52 72 80 84 97 100 100 100 100 95 89 87 81 80
61 49 45 28 100 100 100 100 96 100 100 100 100 100 100 100 100 100 100 100 100 100 100 100 100 100 100 97 91 92 84 99 80 73 92 96 89 81 81 84 89 90 78
68 47 43 33 93 100 100 100 100 100 100 100 100 100 99 100 100 100 100 100 100 100 100 100 95 67 100 100 93 80 73 64 61 55 77 83 95 90 79 78 88 85 94
89 59 39 39 45 100 100 100 100 100 94 100 100 100 100 100 100 100 100 100 100 100 100 71 70 71 83 60 70 57 73 82 72 71 80 92 77 83 92 92 86 85 83
78 82 48 32 35 73 100 100 100 100 100 100 100 100 100 99 98 87 58 100 100 100 100 100 100 100 100 100 100 100 92 86 90 91 98 93 100 100 100 98 90 88 85
73 66 48 38 35 43 88 100 100 100 100 100 100 100 100 100 70 63 98 100 100 100 100 100 100 100 100 100 100 100 100 100 100 100 100 87 86 94 88 80 80 79 75
85 78 49 99 100 60 56 76 94 100 100 100 98 100 100 100 100 100 100 100 100 93 100 100 100 100 100 100 100 100 100 100 93 83 67 67 48 47 63 58 41 42 38
80 86 54 100 100 100 74 70 71 89 100 100 100 100 100 100 100 100 100 100 100 100 100 100 100 100 100 100 100 99 84 72 76 72 84 54 50 47 31 28 30 66 54
75 86 70 98 100 100 100 100 100 89 94 98 100 100 100 100 100 100 100 100 100 100 98 100 100 100 100 100 100 78 75 94 100 96 69 56 37 41 51 62 78 87 94
100 59 76 75 100 94 100 100 100 95 98 100 100 100 100 100 100 100 100 100 100 100 100 100 100 100 100 100 100 100 100 100 100 95 96 76 96 97 100 100 100 100 95
100 89 61 77 82 100 100 100 100 100 100 100 100 100 100 100 100 100 100 100 100 100 100 100 100 100 100 100 100 100 89 100 100 100 100 100 98 85 86 72 72 62 52
100 82 70 58 63 84 100 100 100 100 100 91 99 100 100 100 100 100 100 100 100 100 100 100 100 100 100 100 100 100 100 100 100 89 100 100 100 100 100 67 67 65 68
70 71 78 73 56 54 70 98 100 100 100 100 100 100 100 100 94 100 100 100 100 100 100 100 100 100 100 100 100 100 100 98 96 97 97 93 99 96 85 62 62 84 93
73 75 78 65 56 49 55 70 98 100 100 100 100 100 93 99 100 100 100 100 100 95 100 100 100 100 100 100 100 100 100 100 100 100 98 100 96 100 100 100 97 96 88
57 61 57 53 51 52 52 67 99 100 100 100 96 100 100 97 100 100 100 100 100 98 83 97 100 100 100 100 100 100 100 100 100 100 100 100 100 100 99 92 84 88 87
90 82 86 86 100 91 94 98 100 93 100 100 100 100 100 100 100 100 100 100 100 100 93 73 96 99 100 100 100 100 100 100 100 100 100 100 100 100 100 100 100 100 100
100 100 100 100 100 100 100 100 100 100 98 98 100 100 100 100 100 100 100 100 100 100 100 82 70 70 79 89 94 100 100 100 100 100 100 100 100 100 100 100 100 100 99
100 100 100 100 100 100 100 100 100 100 100 100 100 100 100 100 100 100 100 100 100 100 99 80 66 58 54 60 74 89 100 100 100 100 97 94 96 92 92 90 93 93 99
100 100 100 100 100 100 100 100 100 100 100 100 100 100 100 100 100 100 100 100 100 100 100 100 93 72 61 45 46 44 49 56 71 86 81 83 79 72 71 74 68 61 69
100 100 100 100 100 100 100 100 100 100 100 100 100 100 100 100 100 100 100 100 100 100 100 100 100 100 100 78 60 61 59 80 52 60 68 69 65 71 70 59 54 61 57
100 100 100 100 96 100 100 100 100 100 100 100 100 100 100 100 100 100 100 100 100 100 100 100 92 84 98 94 81 75 64 49 55 53 45 64 90 83 78 54 50 60 53
100 100 100 100 100 92 93 100 100 100 100 100 100 100 100 100 94 100 100 100 100 100 100 100 100 100 100 100 100 100 96 73 58 68 49 42 60 89 62 60 55 52 54
100 100 100 100 98 100 97 87 90 100 100 100 100 100 100 100 100 100 97 99 100 100 100 100 100 100 100 100 100 100 100 100 100 73 75 56 60 74 72 68 72 73 56

GFSMA_250_rhum_381.txt.gz
RH
33 31 24 31 100 100 97 89 100 100 100 100 100 100 100 100 88 100 92 100 100 100 100 96 100 99 89 91 86 88 75 77 94 98 100 100 100 100 100 99 86 62 96
36 45 30 39 38 84 100 100 91 100 100 100 100 100 100 94 100 100 98 100 100 99 88 99 86 72 77 77 72 72 74 67 76 100 100 100 100 100 100 84 63 70 88
52 53 37 29 37 33 71 100 100 100 100 100 100 100 100 100 100 100 100 87 96 99 100 100 93 95 80 72 59 42 50 64 74 78 82 92 96 100 95 80 69 59 53
71 57 45 36 32 33 29 66 100 100 100 100 100 98 100 100 100 100 100 100 100 98 100 100 100 89 71 99 58 39 39 48 54 68 91 90 76 73 70 69 56 52 64
51 49 47 41 40 27 33 41 100 100 100 93 100 100 100 100 93 100 100 100 100 92 100 100 94 100 100 100 100 100 92 82 60 53 39 53 51 47 43 55 36 39 64
72 54 44 48 42 34 31 39 38 98 100 100 100 100 100 100 89 100 100 99 100 100 100 100 100 100 96 96 100 84 67 61 65 77 68 43 26 24 36 37 41 45 59
100 87 80 54 41 47 46 46 45 40 95 100 100 100 96 100 100 100 100 100 72 67 100 100 100 92 74 100 60 83 48 59 68 40 32 34 38 37 47 47 56 90 65
100 100 100 82 70 45 38 44 45 48 72 99 100 100 100 100 100 97 100 100 100 100 94 100 100 68 100 100 100 100 91 100 74 70 70 68 84 88 82 55 64 64 66
100 100 100 79 64 57 40 34 38 46 52 88 100 100 100 100 100 100 100 100 100 100 100 100 97 95 98 100 100 94 100 98 100 100 100 65 60 98 82 99 59 75 70
100 100 99 92 85 73 46 50 34 42 50 54 83 100 100 100 100 100 100 100 100 82 92 94 100 90 100 100 100 100 100 100 100 100 100 99 98 100 100 100 88 73 81
100 100 100 100 100 78 87 79 57 34 42 54 52 100 100 100 100 100 100 100 100 100 100 89 64 100 100 98 100 99 100 100 100 100 97 100 100 100 99 100 77 60 76
100 100 100 100 100 100 96 69 72 45 37 49 54 67 100 100 100 100 100 100 100 100 100 100 100 100 100 100 78 100 100 100 100 100 100 95 100 100 100 100 68 59 57
100 100 100 96 100 100 100 83 82 52 50 37 55 62 96 100 100 100 100 100 100 100 94 100 100 100 100 100 100 98 98 100 100 100 100 100 99 100 100 82 86 79 65
100 100 100 100 100 100 95 99 68 81 60 36 62 64 84 100 100 100 100 100 100 100 100 100 100 100 100 100 100 100 100 100 100 100 100 89 100 100 99 100 100 100 98
100 100 100 100 100 100 98 87 85 78 71 54 49 75 84 91 100 100 100 100 100 100 100 100 100 100 100 98 100 100 100 100 100 100 98 100 100 100 100 100 100 100 96
94 100 100 100 100 100 100 91 86 68 65 46 48 38 48 67 76 92 100 100 100 100 100 100 100 100 100 100 100 100 92 92 100 100 100 100 100 100 100 100 100 100 100
100 100 100 100 100 100 100 100 100 100 70 52 49 49 40 69 64 72 84 100 100 100 100 100 100 100 100 100 100 100 100 100 100 100 100 80 96 100 100 91 100 100 100
100 100 100 100 97 100 73 79 92 100 88 96 52 59 45 80 69 73 66 81 96 97 100 100 100 100 100 100 100 99 86 92 89 98 94 97 62 49 68 59 46 74 82
100 100 100 100 99 100 100 100 100 100 100 97 99 100 64 45 85 96 91 99 100 100 88 90 99 100 100 100 100 100 100 100 100 97 91 100 100 100 100 100 100 100 100
100 100 100 100 100 100 100 93 100 100 100 100 80 98 100 86 100 100 100 100 100 100 100 89 86 87 99 100 100 100 100 100 100 100 100 100 100 100 100 100 100 100 100
100 100 100 100 100 100 100 96 100 100 96 100 100 100 76 93 100 100 100 100 100 100 100 100 100 98 97 82 87 100 100 100 100 100 100 100 100 100 100 100 100 100 100
100 100 100 100 100 100 100 100 100 100 100 84 84 76 100 100 100 100 100 100 100 100 100 100 100 100 100 100 100 100 100 88 75 90 94 100 100 100 100 100 100 100 100
100 100 100 100 100 100 100 100 100 100 100 100 100 98 89 100 100 100 100 100 100 100 100 100 100 100 100 100 100 100 100 100 100 96 93 86 76 78 79 79 81 83 86
100 100 100 100 100 100 100 100 100 100 100 100 100 100 100 99 100 100 100 100 100 100 100 100 100 100 100 100 100 100 100 100 100 100 96 96 93 96 100 88 67 65 66
100 100 100 100 100 100 100 100 100 100 100 100 100 100 100 100 100 100 100 100 100 100 100 100 100 100 100 100 100 100 100 100 100 100 100 100 100 100 100 99 100 100 80
100 100 100 100 100 100 100 100 100 100 100 100 100 100 100 100 100 100 100 100 100 100 100 100 100 100 100 100 100 100 100 100 100 100 100 100 100 100 100 100 100 100 100